Time,TemperatureF,DewpointF,PressureIn,WindDirection,WindDirectionDegrees,WindSpeedMPH,WindSpeedGustMPH,Humidity,HourlyPrecipIn,Conditions,Clouds,dailyrainin,SoftwareType,DateUTC
2013-07-06 00:01:00,70.5,65.1,30.13,SW,225,0.0,0.0,83,0.00,,,0.00,WUHU21623XXSP,2013-07-06 04:01:00,
2013-07-06 00:06:00,70.5,65.1,30.13,SW,225,0.0,0.0,83,0.00,,,0.00,WUHU21623XXSP,2013-07-06 04:06:00,
2013-07-06 00:11:00,70.5,65.1,30.13,SW,225,0.0,0.0,83,0.00,,,0.00,WUHU21623XXSP,2013-07-06 04:11:00,
2013-07-06 00:16:00,70.5,65.1,30.13,SW,225,0.0,0.0,83,0.00,,,0.00,WUHU21623XXSP,2013-07-06 04:16:00,
2013-07-06 00:21:00,70.5,65.1,30.13,SW,225,0.0,0.0,83,0.00,,,0.00,WUHU21623XXSP,2013-07-06 04:21:00,
2013-07-06 00:26:00,70.3,64.9,30.13,SW,225,0.0,0.0,83,0.00,,,0.00,WUHU21623XXSP,2013-07-06 04:26:00,
2013-07-06 00:31:00,70.3,64.9,30.13,SW,225,0.0,0.0,83,0.00,,,0.00,WUHU21623XXSP,2013-07-06 04:31:00,
2013-07-06 00:36:00,70.3,64.9,30.13,SSW,202,0.0,0.0,83,0.00,,,0.00,WUHU21623XXSP,2013-07-06 04:36:00,
2013-07-06 00:41:00,70.3,64.9,30.13,SSE,157,0.0,0.0,83,0.00,,,0.00,WUHU21623XXSP,2013-07-06 04:41:00,
2013-07-06 00:46:00,70.2,64.7,30.13,SSE,157,0.0,0.0,83,0.00,,,0.00,WUHU21623XXSP,2013-07-06 04:46:00,
2013-07-06 00:51:00,70.2,64.7,30.13,SSE,157,0.0,0.0,83,0.00,,,0.00,WUHU21623XXSP,2013-07-06 04:51:00,
2013-07-06 00:56:00,70.2,64.7,30.13,SSE,157,0.0,0.0,83,0.00,,,0.00,WUHU21623XXSP,2013-07-06 04:56:00,
2013-07-06 01:01:00,70.2,64.7,30.13,SSE,157,0.0,0.0,83,0.00,,,0.00,WUHU21623XXSP,2013-07-06 05:01:00,
2013-07-06 01:10:00,70.2,64.7,30.13,SSE,157,0.0,0.0,83,0.00,,,0.00,WUHU21623XXSP,2013-07-06 05:10:00,
2013-07-06 01:15:00,70.0,64.5,30.13,SSE,157,0.0,0.0,83,0.00,,,0.00,WUHU21623XXSP,2013-07-06 05:15:00,
2013-07-06 01:20:00,69.8,64.3,30.13,SSE,157,0.0,0.0,83,0.00,,,0.00,WUHU21623XXSP,2013-07-06 05:20:00,
2013-07-06 01:25:00,69.8,64.3,30.13,SSE,157,0.0,0.0,83,0.00,,,0.00,WUHU21623XXSP,2013-07-06 05:25:00,
2013-07-06 01:30:00,69.8,64.3,30.14,SSE,157,0.0,0.0,83,0.00,,,0.00,WUHU21623XXSP,2013-07-06 05:30:00,
2013-07-06 01:35:00,69.6,64.2,30.13,SSE,157,0.0,0.0,83,0.00,,,0.00,WUHU21623XXSP,2013-07-06 05:35:00,
2013-07-06 01:40:00,69.6,64.2,30.13,SSE,157,0.0,0.0,83,0.00,,,0.00,WUHU21623XXSP,2013-07-06 05:40:00,
2013-07-06 01:45:00,69.6,64.5,30.13,SSE,157,0.0,0.0,84,0.00,,,0.00,WUHU21623XXSP,2013-07-06 05:45:00,
2013-07-06 01:50:00,69.6,64.5,30.13,SSE,157,0.0,0.0,84,0.00,,,0.00,WUHU21623XXSP,2013-07-06 05:50:00,
2013-07-06 01:55:00,69.4,64.3,30.13,SSE,157,0.0,0.0,84,0.00,,,0.00,WUHU21623XXSP,2013-07-06 05:55:00,
2013-07-06 02:00:00,69.4,64.3,30.13,SSE,157,0.0,0.0,84,0.00,,,0.00,WUHU21623XXSP,2013-07-06 06:00:00,
2013-07-06 02:05:00,69.4,64.3,30.13,SSE,157,0.0,0.0,84,0.00,,,0.00,WUHU21623XXSP,2013-07-06 06:05:00,
2013-07-06 02:10:00,69.4,64.3,30.13,SSE,157,0.0,0.0,84,0.00,,,0.00,WUHU21623XXSP,2013-07-06 06:10:00,
2013-07-06 02:15:00,69.4,64.3,30.13,SSE,157,0.0,0.0,84,0.00,,,0.00,WUHU21623XXSP,2013-07-06 06:15:00,
2013-07-06 02:20:00,69.4,64.3,30.13,SSE,157,0.0,0.0,84,0.00,,,0.00,WUHU21623XXSP,2013-07-06 06:20:00,
2013-07-06 02:25:00,69.4,64.3,30.13,SSE,157,0.0,0.0,84,0.00,,,0.00,WUHU21623XXSP,2013-07-06 06:25:00,
2013-07-06 02:30:00,69.4,64.3,30.13,SSE,157,0.0,0.0,84,0.00,,,0.00,WUHU21623XXSP,2013-07-06 06:30:00,
2013-07-06 02:35:00,69.4,64.7,30.13,SSE,157,0.0,0.0,85,0.00,,,0.00,WUHU21623XXSP,2013-07-06 06:35:00,
2013-07-06 02:40:00,69.4,64.7,30.12,SSE,157,0.0,0.0,85,0.00,,,0.00,WUHU21623XXSP,2013-07-06 06:40:00,
2013-07-06 02:45:00,69.4,64.7,30.13,SSE,157,0.0,0.0,85,0.00,,,0.00,WUHU21623XXSP,2013-07-06 06:45:00,
2013-07-06 02:51:00,69.4,64.7,30.13,SSE,157,0.0,0.0,85,0.00,,,0.00,WUHU21623XXSP,2013-07-06 06:51:00,
2013-07-06 02:56:00,69.3,64.5,30.13,SSE,157,0.0,0.0,85,0.00,,,0.00,WUHU21623XXSP,2013-07-06 06:56:00,
2013-07-06 03:01:00,69.3,64.5,30.12,SSE,157,0.0,0.0,85,0.00,,,0.00,WUHU21623XXSP,2013-07-06 07:01:00,
2013-07-06 03:10:00,69.3,64.5,30.12,SSE,157,0.0,0.0,85,0.00,,,0.00,WUHU21623XXSP,2013-07-06 07:10:00,
2013-07-06 03:15:00,69.3,64.5,30.12,SSE,157,0.0,0.0,85,0.00,,,0.00,WUHU21623XXSP,2013-07-06 07:15:00,
2013-07-06 03:20:00,69.1,64.7,30.12,SSE,157,0.0,0.0,86,0.00,,,0.00,WUHU21623XXSP,2013-07-06 07:20:00,
2013-07-06 03:25:00,69.1,64.7,30.12,SSE,157,0.0,0.0,86,0.00,,,0.00,WUHU21623XXSP,2013-07-06 07:25:00,
2013-07-06 03:30:00,69.1,64.7,30.12,SSE,157,0.0,0.0,86,0.00,,,0.00,WUHU21623XXSP,2013-07-06 07:30:00,
2013-07-06 03:35:00,69.1,64.7,30.12,SSE,157,0.0,0.0,86,0.00,,,0.00,WUHU21623XXSP,2013-07-06 07:35:00,
2013-07-06 03:40:00,69.1,64.7,30.11,SSE,157,0.0,0.0,86,0.00,,,0.00,WUHU21623XXSP,2013-07-06 07:40:00,
2013-07-06 03:45:00,69.1,64.7,30.12,SSE,157,0.0,0.0,86,0.00,,,0.00,WUHU21623XXSP,2013-07-06 07:45:00,
2013-07-06 03:50:00,69.1,64.7,30.12,SSE,157,0.0,0.0,86,0.00,,,0.00,WUHU21623XXSP,2013-07-06 07:50:00,
2013-07-06 03:55:00,69.1,64.7,30.12,SSE,157,0.0,0.0,86,0.00,,,0.00,WUHU21623XXSP,2013-07-06 07:55:00,
2013-07-06 04:00:00,69.1,64.7,30.12,SSE,157,0.0,0.0,86,0.00,,,0.00,WUHU21623XXSP,2013-07-06 08:00:00,
2013-07-06 04:05:00,69.1,64.7,30.12,SSE,157,0.0,0.0,86,0.00,,,0.00,WUHU21623XXSP,2013-07-06 08:05:00,
2013-07-06 04:11:00,69.1,64.7,30.12,SSE,157,0.0,0.0,86,0.00,,,0.00,WUHU21623XXSP,2013-07-06 08:11:00,
2013-07-06 04:16:00,69.1,64.7,30.12,SSE,157,0.0,0.0,86,0.00,,,0.00,WUHU21623XXSP,2013-07-06 08:16:00,
2013-07-06 04:21:00,69.1,64.7,30.12,SSE,157,0.0,0.0,86,0.00,,,0.00,WUHU21623XXSP,2013-07-06 08:21:00,
2013-07-06 04:26:00,69.1,64.7,30.12,SSE,157,0.0,0.0,86,0.00,,,0.00,WUHU21623XXSP,2013-07-06 08:26:00,
2013-07-06 04:31:00,69.1,64.7,30.11,SSE,157,0.0,0.0,86,0.00,,,0.00,WUHU21623XXSP,2013-07-06 08:31:00,
2013-07-06 04:34:00,69.1,64.7,30.11,North,0,0.0,0.0,86,0.00,,,0.00,WUHU21623XXSP,2013-07-06 08:34:00,
2013-07-06 04:36:00,69.1,64.7,30.11,SSE,157,0.0,0.0,86,0.00,,,0.00,WUHU21623XXSP,2013-07-06 08:36:00,
2013-07-06 04:41:00,69.1,64.7,30.11,North,0,0.0,0.0,86,0.00,,,0.00,WUHU21623XXSP,2013-07-06 08:41:00,
2013-07-06 06:56:00,68.5,64.8,30.12,North,0,0.0,0.0,88,0.00,,,0.00,WUHU21623XXSP,2013-07-06 10:56:00,
2013-07-06 07:01:00,68.5,64.8,30.12,SSE,157,0.0,0.0,88,0.00,,,0.00,WUHU21623XXSP,2013-07-06 11:01:00,
2013-07-06 07:07:00,68.7,65.0,30.12,SSE,157,0.0,0.0,88,0.00,,,0.00,WUHU21623XXSP,2013-07-06 11:07:00,
2013-07-06 07:12:00,68.7,65.0,30.12,SSE,157,0.0,0.0,88,0.00,,,0.00,WUHU21623XXSP,2013-07-06 11:12:00,
2013-07-06 07:17:00,68.7,65.0,30.12,SSE,157,0.0,0.0,88,0.00,,,0.00,WUHU21623XXSP,2013-07-06 11:17:00,
2013-07-06 07:22:00,68.7,65.0,30.12,SSE,157,0.0,0.0,88,0.00,,,0.00,WUHU21623XXSP,2013-07-06 11:22:00,
2013-07-06 07:27:00,68.7,65.0,30.12,SSE,157,0.0,0.0,88,0.00,,,0.00,WUHU21623XXSP,2013-07-06 11:27:00,
2013-07-06 07:32:00,68.7,65.0,30.13,SSE,157,0.0,0.0,88,0.00,,,0.00,WUHU21623XXSP,2013-07-06 11:32:00,
2013-07-06 07:37:00,68.7,65.0,30.13,SSE,157,0.0,0.0,88,0.00,,,0.00,WUHU21623XXSP,2013-07-06 11:37:00,
2013-07-06 07:40:00,68.7,65.0,30.12,North,0,0.0,0.0,88,0.00,,,0.00,WUHU21623XXSP,2013-07-06 11:40:00,
2013-07-06 07:42:00,68.7,65.0,30.12,SSE,157,0.0,0.0,88,0.00,,,0.00,WUHU21623XXSP,2013-07-06 11:42:00,
2013-07-06 07:47:00,68.7,65.0,30.12,North,0,0.0,0.0,88,0.00,,,0.00,WUHU21623XXSP,2013-07-06 11:47:00,
2013-07-06 08:11:00,69.8,66.7,30.12,North,0,0.0,0.0,90,0.00,,,0.00,WUHU21623XXSP,2013-07-06 12:11:00,
2013-07-06 08:16:00,69.8,66.7,30.12,SSW,202,0.0,0.0,90,0.00,,,0.00,WUHU21623XXSP,2013-07-06 12:16:00,
2013-07-06 08:21:00,70.0,66.9,30.12,SSW,202,0.0,0.0,90,0.00,,,0.00,WUHU21623XXSP,2013-07-06 12:21:00,
2013-07-06 08:26:00,70.0,66.9,30.12,SSW,202,0.0,0.0,90,0.00,,,0.00,WUHU21623XXSP,2013-07-06 12:26:00,
2013-07-06 08:31:00,70.0,66.9,30.12,SSW,202,0.0,0.0,90,0.00,,,0.00,WUHU21623XXSP,2013-07-06 12:31:00,
2013-07-06 08:36:00,70.0,66.9,30.12,SSW,202,0.0,0.0,90,0.00,,,0.00,WUHU21623XXSP,2013-07-06 12:36:00,
2013-07-06 08:41:00,70.0,66.9,30.12,SSW,202,0.0,0.0,90,0.00,,,0.00,WUHU21623XXSP,2013-07-06 12:41:00,
2013-07-06 08:46:00,70.0,66.9,30.12,North,0,0.0,0.0,90,0.00,,,0.00,WUHU21623XXSP,2013-07-06 12:46:00,
2013-07-06 08:51:00,70.5,67.5,30.12,North,0,0.0,0.0,90,0.00,,,0.00,WUHU21623XXSP,2013-07-06 12:51:00,
2013-07-06 08:56:00,70.5,67.5,30.12,SSE,157,0.0,0.0,90,0.00,,,0.00,WUHU21623XXSP,2013-07-06 12:56:00,
2013-07-06 09:01:00,70.7,67.6,30.13,SSW,202,0.0,0.0,90,0.00,,,0.00,WUHU21623XXSP,2013-07-06 13:01:00,
2013-07-06 09:06:00,70.7,67.6,30.12,SSW,202,0.0,0.0,90,0.00,,,0.00,WUHU21623XXSP,2013-07-06 13:06:00,
2013-07-06 09:11:00,70.7,67.6,30.12,SSW,202,0.0,0.0,90,0.00,,,0.00,WUHU21623XXSP,2013-07-06 13:11:00,
2013-07-06 09:16:00,70.7,67.6,30.12,SSW,202,0.0,0.0,90,0.00,,,0.00,WUHU21623XXSP,2013-07-06 13:16:00,
2013-07-06 09:21:00,70.7,67.6,30.12,SSW,202,0.0,0.0,90,0.00,,,0.00,WUHU21623XXSP,2013-07-06 13:21:00,
2013-07-06 09:26:00,70.7,67.6,30.12,North,0,0.0,0.0,90,0.00,,,0.00,WUHU21623XXSP,2013-07-06 13:26:00,
2013-07-06 09:52:00,71.2,68.2,30.12,North,0,0.0,0.0,90,0.00,,,0.00,WUHU21623XXSP,2013-07-06 13:52:00,
2013-07-06 09:57:00,71.2,68.2,30.12,North,0,0.0,0.0,90,0.00,,,0.00,WUHU21623XXSP,2013-07-06 13:57:00,
2013-07-06 10:02:00,71.2,67.8,30.12,SSE,157,0.0,0.0,89,0.00,,,0.00,WUHU21623XXSP,2013-07-06 14:02:00,
2013-07-06 10:07:00,71.4,68.0,30.12,South,180,0.0,0.0,89,0.00,,,0.00,WUHU21623XXSP,2013-07-06 14:07:00,
2013-07-06 10:13:00,71.4,68.0,30.12,SSW,202,0.0,0.0,89,0.00,,,0.00,WUHU21623XXSP,2013-07-06 14:13:00,
2013-07-06 10:18:00,71.4,68.0,30.12,SSW,202,0.0,0.0,89,0.00,,,0.00,WUHU21623XXSP,2013-07-06 14:18:00,
2013-07-06 10:23:00,71.4,68.0,30.12,SSW,202,0.0,0.0,89,0.00,,,0.00,WUHU21623XXSP,2013-07-06 14:23:00,
2013-07-06 10:28:00,71.4,68.0,30.12,SSW,202,0.0,0.0,89,0.00,,,0.00,WUHU21623XXSP,2013-07-06 14:28:00,
2013-07-06 10:33:00,71.4,68.0,30.12,SSW,202,0.0,0.0,89,0.00,,,0.00,WUHU21623XXSP,2013-07-06 14:33:00,
2013-07-06 10:38:00,71.4,68.0,30.12,SE,135,1.8,1.8,89,0.00,,,0.00,WUHU21623XXSP,2013-07-06 14:38:00,
2013-07-06 10:43:00,71.2,67.8,30.11,South,180,4.0,4.0,89,0.00,,,0.00,WUHU21623XXSP,2013-07-06 14:43:00,
2013-07-06 10:48:00,71.2,67.8,30.12,South,180,4.0,4.0,89,0.00,,,0.00,WUHU21623XXSP,2013-07-06 14:48:00,
2013-07-06 10:53:00,71.2,67.8,30.12,SSW,202,0.0,4.0,89,0.00,,,0.00,WUHU21623XXSP,2013-07-06 14:53:00,
2013-07-06 10:58:00,71.4,68.0,30.12,ESE,112,1.1,4.0,89,0.00,,,0.00,WUHU21623XXSP,2013-07-06 14:58:00,
2013-07-06 11:03:00,71.2,67.8,30.12,South,180,0.0,1.1,89,0.00,,,0.00,WUHU21623XXSP,2013-07-06 15:03:00,
2013-07-06 11:08:00,70.7,67.0,30.12,East,90,1.3,1.3,88,0.00,,,0.00,WUHU21623XXSP,2013-07-06 15:08:00,
2013-07-06 11:13:00,70.4,66.7,30.12,East,90,1.3,1.3,88,0.00,,,0.00,WUHU21623XXSP,2013-07-06 15:13:00,
2013-07-06 11:18:00,70.1,66.4,30.12,WSW,247,1.3,1.3,88,0.00,,,0.00,WUHU21623XXSP,2013-07-06 15:18:00,
2013-07-06 11:23:00,69.8,66.1,30.11,WSW,247,1.3,1.3,88,0.00,,,0.00,WUHU21623XXSP,2013-07-06 15:23:00,
2013-07-06 11:28:00,69.5,65.8,30.12,SSE,157,4.0,4.0,88,0.00,,,0.00,WUHU21623XXSP,2013-07-06 15:28:00,
2013-07-06 11:33:00,69.2,65.2,30.11,SSE,157,4.0,4.0,87,0.00,,,0.00,WUHU21623XXSP,2013-07-06 15:33:00,
2013-07-06 11:38:00,68.9,64.9,30.11,South,180,0.0,4.0,87,0.00,,,0.00,WUHU21623XXSP,2013-07-06 15:38:00,
2013-07-06 11:43:00,68.6,64.6,30.12,South,180,0.0,0.0,87,0.00,,,0.00,WUHU21623XXSP,2013-07-06 15:43:00,
2013-07-06 11:48:00,68.3,64.3,30.12,SSW,202,0.0,0.0,87,0.00,,,0.00,WUHU21623XXSP,2013-07-06 15:48:00,
2013-07-06 11:53:00,68.1,64.0,30.12,SSW,202,0.0,0.0,87,0.00,,,0.00,WUHU21623XXSP,2013-07-06 15:53:00,
2013-07-06 11:58:00,67.8,63.8,30.12,SE,135,0.2,0.2,87,0.00,,,0.00,WUHU21623XXSP,2013-07-06 15:58:00,
2013-07-06 12:03:00,67.5,63.2,30.12,SSE,157,0.0,0.2,86,0.00,,,0.00,WUHU21623XXSP,2013-07-06 16:03:00,
2013-07-06 12:08:00,67.2,62.9,30.12,South,180,0.0,0.2,86,0.00,,,0.00,WUHU21623XXSP,2013-07-06 16:08:00,
2013-07-06 12:13:00,67.2,62.9,30.11,West,270,0.0,0.0,86,0.00,,,0.00,WUHU21623XXSP,2013-07-06 16:13:00,
2013-07-06 12:18:00,67.0,62.6,30.12,SSW,202,0.0,0.0,86,0.00,,,0.00,WUHU21623XXSP,2013-07-06 16:18:00,
2013-07-06 12:23:00,66.9,62.6,30.12,SSW,202,0.0,0.0,86,0.00,,,0.00,WUHU21623XXSP,2013-07-06 16:23:00,
2013-07-06 12:29:00,66.9,62.6,30.12,SSE,157,2.9,2.9,86,0.00,,,0.00,WUHU21623XXSP,2013-07-06 16:29:00,
2013-07-06 12:34:00,66.7,62.4,30.12,SSE,157,2.9,2.9,86,0.00,,,0.00,WUHU21623XXSP,2013-07-06 16:34:00,
2013-07-06 12:40:00,66.4,62.1,30.11,SSE,157,2.9,2.9,86,0.00,,,0.00,WUHU21623XXSP,2013-07-06 16:40:00,
2013-07-06 12:45:00,66.3,61.9,30.11,SSE,157,2.9,2.9,86,0.00,,,0.00,WUHU21623XXSP,2013-07-06 16:45:00,
2013-07-06 12:51:00,67.0,62.6,30.11,South,170,3.4,4.0,86,0.00,,,0.00,WUHU21623XXSP,2013-07-06 16:51:00,
2013-07-06 12:56:00,66.8,62.5,30.11,SSE,157,2.9,4.0,86,0.00,,,0.00,WUHU21623XXSP,2013-07-06 16:56:00,
2013-07-06 13:01:00,67.1,62.5,30.11,SW,225,3.6,5.6,85,0.00,,,0.00,WUHU21623XXSP,2013-07-06 17:01:00,
2013-07-06 13:07:00,67.3,62.7,30.11,SSE,157,0.0,5.6,85,0.00,,,0.00,WUHU21623XXSP,2013-07-06 17:07:00,
2013-07-06 13:12:00,67.4,62.8,30.10,East,90,0.0,3.6,85,0.00,,,0.00,WUHU21623XXSP,2013-07-06 17:12:00,
2013-07-06 13:17:00,67.3,62.6,30.11,East,90,0.0,0.0,85,0.00,,,0.00,WUHU21623XXSP,2013-07-06 17:17:00,
2013-07-06 13:22:00,67.0,61.7,30.10,South,180,0.0,0.0,83,0.00,,,0.00,WUHU21623XXSP,2013-07-06 17:22:00,
2013-07-06 13:27:00,66.9,61.3,30.10,SW,225,1.6,1.6,82,0.00,,,0.00,WUHU21623XXSP,2013-07-06 17:27:00,
2013-07-06 13:32:00,66.8,61.2,30.10,SW,225,1.6,1.6,82,0.00,,,0.00,WUHU21623XXSP,2013-07-06 17:32:00,
2013-07-06 13:38:00,67.0,61.4,30.10,SSW,202,0.0,1.6,82,0.00,,,0.00,WUHU21623XXSP,2013-07-06 17:38:00,
2013-07-06 13:43:00,67.2,61.5,30.10,SSE,157,0.9,1.6,82,0.00,,,0.00,WUHU21623XXSP,2013-07-06 17:43:00,
2013-07-06 13:48:00,67.1,61.5,30.10,SW,225,0.0,0.9,82,0.00,,,0.00,WUHU21623XXSP,2013-07-06 17:48:00,
2013-07-06 13:53:00,67.3,61.3,30.10,WSW,247,2.5,2.5,81,0.00,,,0.00,WUHU21623XXSP,2013-07-06 17:53:00,
2013-07-06 13:59:00,67.5,61.5,30.10,SSW,202,1.6,2.5,81,0.00,,,0.00,WUHU21623XXSP,2013-07-06 17:59:00,
2013-07-06 14:04:00,67.5,61.2,30.10,South,180,0.0,2.5,80,0.00,,,0.00,WUHU21623XXSP,2013-07-06 18:04:00,
2013-07-06 14:09:00,67.5,61.2,30.10,WSW,247,0.0,0.0,80,0.00,,,0.00,WUHU21623XXSP,2013-07-06 18:09:00,
2013-07-06 14:14:00,67.6,61.2,30.10,WSW,247,0.0,0.0,80,0.00,,,0.00,WUHU21623XXSP,2013-07-06 18:14:00,
2013-07-06 14:19:00,67.6,61.3,30.10,West,270,0.0,0.0,80,0.00,,,0.00,WUHU21623XXSP,2013-07-06 18:19:00,
2013-07-06 14:24:00,67.7,61.0,30.10,SE,135,0.0,0.0,79,0.00,,,0.00,WUHU21623XXSP,2013-07-06 18:24:00,
2013-07-06 14:30:00,67.7,61.1,30.10,WNW,292,0.0,0.0,79,0.00,,,0.00,WUHU21623XXSP,2013-07-06 18:30:00,
2013-07-06 14:35:00,67.6,61.0,30.09,West,270,0.0,0.0,79,0.00,,,0.00,WUHU21623XXSP,2013-07-06 18:35:00,
2013-07-06 14:40:00,67.7,61.1,30.09,SE,135,0.0,0.0,79,0.00,,,0.00,WUHU21623XXSP,2013-07-06 18:40:00,
2013-07-06 14:45:00,67.8,61.5,30.09,SE,135,0.0,0.0,80,0.00,,,0.00,WUHU21623XXSP,2013-07-06 18:45:00,
2013-07-06 14:51:00,67.6,61.2,30.09,SE,135,0.0,0.0,80,0.00,,,0.00,WUHU21623XXSP,2013-07-06 18:51:00,
2013-07-06 14:56:00,67.7,61.4,30.09,SW,225,0.0,0.0,80,0.00,,,0.00,WUHU21623XXSP,2013-07-06 18:56:00,
2013-07-06 15:01:00,67.9,61.5,30.09,SW,225,0.0,0.0,80,0.00,,,0.00,WUHU21623XXSP,2013-07-06 19:01:00,
2013-07-06 15:06:00,68.0,61.7,30.08,SW,225,0.0,0.0,80,0.00,,,0.00,WUHU21623XXSP,2013-07-06 19:06:00,
2013-07-06 15:11:00,68.4,62.1,30.08,SW,225,0.0,0.0,80,0.00,,,0.00,WUHU21623XXSP,2013-07-06 19:11:00,
2013-07-06 15:16:00,68.6,62.3,30.08,SW,225,0.0,0.0,80,0.00,,,0.00,WUHU21623XXSP,2013-07-06 19:16:00,
2013-07-06 15:22:00,68.8,62.5,30.08,SW,225,0.0,0.0,80,0.00,,,0.00,WUHU21623XXSP,2013-07-06 19:22:00,
2013-07-06 15:27:00,69.0,62.7,30.08,SW,225,0.0,0.0,80,0.00,,,0.00,WUHU21623XXSP,2013-07-06 19:27:00,
2013-07-06 15:32:00,69.4,63.1,30.08,SW,225,0.0,0.0,80,0.00,,,0.00,WUHU21623XXSP,2013-07-06 19:32:00,
2013-07-06 15:37:00,69.9,63.9,30.09,SW,225,0.0,0.0,81,0.00,,,0.00,WUHU21623XXSP,2013-07-06 19:37:00,
2013-07-06 15:43:00,70.1,63.8,30.08,SW,225,0.0,0.0,80,0.00,,,0.00,WUHU21623XXSP,2013-07-06 19:43:00,
2013-07-06 15:48:00,70.4,64.4,30.08,SW,225,0.0,0.0,81,0.00,,,0.00,WUHU21623XXSP,2013-07-06 19:48:00,
2013-07-06 15:53:00,70.6,64.6,30.08,SW,225,0.0,0.0,81,0.00,,,0.00,WUHU21623XXSP,2013-07-06 19:53:00,
2013-07-06 15:59:00,70.9,64.9,30.08,WSW,247,0.0,0.0,81,0.00,,,0.00,WUHU21623XXSP,2013-07-06 19:59:00,
2013-07-06 16:04:00,71.2,65.1,30.08,WSW,247,0.0,0.0,81,0.00,,,0.00,WUHU21623XXSP,2013-07-06 20:04:00,
2013-07-06 16:09:00,71.5,65.4,30.08,WSW,247,0.0,0.0,81,0.00,,,0.00,WUHU21623XXSP,2013-07-06 20:09:00,
2013-07-06 16:15:00,71.8,65.7,30.08,West,270,0.0,0.0,81,0.00,,,0.00,WUHU21623XXSP,2013-07-06 20:15:00,
2013-07-06 16:20:00,72.1,66.0,30.08,West,270,0.0,0.0,81,0.00,,,0.00,WUHU21623XXSP,2013-07-06 20:20:00,
2013-07-06 16:25:00,72.2,66.1,30.07,West,270,0.0,0.0,81,0.00,,,0.00,WUHU21623XXSP,2013-07-06 20:25:00,
2013-07-06 16:30:00,72.3,66.2,30.07,West,270,0.0,0.0,81,0.00,,,0.00,WUHU21623XXSP,2013-07-06 20:30:00,
2013-07-06 16:35:00,72.6,66.5,30.07,West,270,0.0,0.0,81,0.00,,,0.00,WUHU21623XXSP,2013-07-06 20:35:00,
2013-07-06 16:40:00,72.9,66.8,30.07,West,270,0.0,0.0,81,0.00,,,0.00,WUHU21623XXSP,2013-07-06 20:40:00,
2013-07-06 16:45:00,73.2,67.1,30.07,West,270,0.0,0.0,81,0.00,,,0.00,WUHU21623XXSP,2013-07-06 20:45:00,
2013-07-06 16:50:00,73.2,67.5,30.07,West,270,0.0,0.0,82,0.00,,,0.00,WUHU21623XXSP,2013-07-06 20:50:00,
2013-07-06 16:55:00,73.5,67.8,30.06,West,270,0.0,0.0,82,0.00,,,0.00,WUHU21623XXSP,2013-07-06 20:55:00,
2013-07-06 17:01:00,73.8,68.0,30.07,West,270,0.0,0.0,82,0.00,,,0.00,WUHU21623XXSP,2013-07-06 21:01:00,
2013-07-06 17:06:00,73.8,68.0,30.06,West,270,0.0,0.0,82,0.00,,,0.00,WUHU21623XXSP,2013-07-06 21:06:00,
2013-07-06 17:12:00,73.8,68.3,30.06,West,270,0.0,0.0,83,0.00,,,0.00,WUHU21623XXSP,2013-07-06 21:12:00,
2013-07-06 17:17:00,73.8,68.3,30.06,West,270,0.0,0.0,83,0.00,,,0.00,WUHU21623XXSP,2013-07-06 21:17:00,
2013-07-06 17:23:00,73.8,68.3,30.06,West,270,0.0,0.0,83,0.00,,,0.00,WUHU21623XXSP,2013-07-06 21:23:00,
2013-07-06 17:28:00,73.6,68.1,30.06,West,270,0.0,0.0,83,0.00,,,0.00,WUHU21623XXSP,2013-07-06 21:28:00,
2013-07-06 17:33:00,73.6,68.1,30.06,West,270,0.0,0.0,83,0.00,,,0.00,WUHU21623XXSP,2013-07-06 21:33:00,
2013-07-06 17:39:00,73.6,67.8,30.05,West,270,0.0,0.0,82,0.00,,,0.00,WUHU21623XXSP,2013-07-06 21:39:00,
2013-07-06 17:44:00,73.6,68.1,30.05,West,270,0.0,0.0,83,0.00,,,0.00,WUHU21623XXSP,2013-07-06 21:44:00,
2013-07-06 17:50:00,73.6,68.1,30.06,West,270,0.0,0.0,83,0.00,,,0.00,WUHU21623XXSP,2013-07-06 21:50:00,
2013-07-06 17:55:00,73.6,68.1,30.06,West,270,0.0,0.0,83,0.00,,,0.00,WUHU21623XXSP,2013-07-06 21:55:00,
2013-07-06 18:01:00,73.6,68.1,30.05,SW,225,0.0,0.0,83,0.00,,,0.00,WUHU21623XXSP,2013-07-06 22:01:00,
2013-07-06 18:07:00,73.9,68.5,30.05,SW,225,0.0,0.0,83,0.00,,,0.00,WUHU21623XXSP,2013-07-06 22:07:00,
2013-07-06 18:12:00,73.9,68.5,30.05,SW,225,0.0,0.0,83,0.00,,,0.00,WUHU21623XXSP,2013-07-06 22:12:00,
2013-07-06 18:17:00,73.9,68.5,30.05,SW,225,0.0,0.0,83,0.00,,,0.00,WUHU21623XXSP,2013-07-06 22:17:00,
2013-07-06 18:22:00,73.9,68.5,30.05,SW,225,0.0,0.0,83,0.00,,,0.00,WUHU21623XXSP,2013-07-06 22:22:00,
2013-07-06 18:25:00,73.9,68.5,30.05,North,0,0.0,0.0,83,0.00,,,0.00,WUHU21623XXSP,2013-07-06 22:25:00,
2013-07-06 18:27:00,73.9,68.5,30.05,SW,225,0.0,0.0,83,0.00,,,0.00,WUHU21623XXSP,2013-07-06 22:27:00,
2013-07-06 18:32:00,73.9,68.5,30.05,North,0,0.0,0.0,83,0.00,,,0.00,WUHU21623XXSP,2013-07-06 22:32:00,
2013-07-06 18:53:00,73.8,67.6,30.05,North,0,0.0,0.0,81,0.00,,,0.00,WUHU21623XXSP,2013-07-06 22:53:00,
2013-07-06 18:58:00,73.6,67.8,30.05,West,270,0.0,0.0,82,0.00,,,0.00,WUHU21623XXSP,2013-07-06 22:58:00,
2013-07-06 19:03:00,73.6,67.8,30.05,West,270,0.0,0.0,82,0.00,,,0.00,WUHU21623XXSP,2013-07-06 23:03:00,
2013-07-06 19:08:00,73.6,67.8,30.05,West,270,0.0,0.0,82,0.00,,,0.00,WUHU21623XXSP,2013-07-06 23:08:00,
2013-07-06 19:13:00,73.6,67.8,30.05,SW,225,0.0,0.0,82,0.00,,,0.00,WUHU21623XXSP,2013-07-06 23:13:00,
2013-07-06 19:19:00,73.6,67.8,30.05,SW,225,0.0,0.0,82,0.00,,,0.00,WUHU21623XXSP,2013-07-06 23:19:00,
2013-07-06 19:25:00,73.4,67.6,30.04,SW,225,0.0,0.0,82,0.00,,,0.00,WUHU21623XXSP,2013-07-06 23:25:00,
2013-07-06 19:31:00,73.4,67.6,30.04,SW,225,0.0,0.0,82,0.00,,,0.00,WUHU21623XXSP,2013-07-06 23:31:00,
2013-07-06 19:36:00,73.4,67.6,30.05,SW,225,0.0,0.0,82,0.00,,,0.00,WUHU21623XXSP,2013-07-06 23:36:00,
2013-07-06 19:41:00,73.2,67.4,30.05,West,270,0.0,0.0,82,0.00,,,0.00,WUHU21623XXSP,2013-07-06 23:41:00,
2013-07-06 19:46:00,73.2,67.4,30.05,West,270,0.0,0.0,82,0.00,,,0.00,WUHU21623XXSP,2013-07-06 23:46:00,
2013-07-06 19:52:00,73.0,67.2,30.05,West,270,0.0,0.0,82,0.00,,,0.00,WUHU21623XXSP,2013-07-06 23:52:00,
2013-07-06 19:57:00,73.0,67.2,30.05,SSW,202,0.0,0.0,82,0.00,,,0.00,WUHU21623XXSP,2013-07-06 23:57:00,
2013-07-06 20:02:00,73.0,67.2,30.05,SW,225,0.0,0.0,82,0.00,,,0.00,WUHU21623XXSP,2013-07-07 00:02:00,
2013-07-06 20:08:00,73.0,67.2,30.05,SW,225,0.0,0.0,82,0.00,,,0.00,WUHU21623XXSP,2013-07-07 00:08:00,
2013-07-06 20:13:00,72.7,66.9,30.05,WSW,247,0.0,0.0,82,0.00,,,0.00,WUHU21623XXSP,2013-07-07 00:13:00,
2013-07-06 20:18:00,72.7,66.9,30.06,WSW,247,0.0,0.0,82,0.00,,,0.00,WUHU21623XXSP,2013-07-07 00:18:00,
2013-07-06 20:23:00,72.7,66.9,30.05,WSW,247,0.0,0.0,82,0.00,,,0.00,WUHU21623XXSP,2013-07-07 00:23:00,
2013-07-06 20:29:00,72.7,67.2,30.05,WSW,247,0.0,0.0,83,0.00,,,0.00,WUHU21623XXSP,2013-07-07 00:29:00,
2013-07-06 20:34:00,72.5,67.0,30.05,WSW,247,0.0,0.0,83,0.00,,,0.00,WUHU21623XXSP,2013-07-07 00:34:00,
2013-07-06 20:40:00,72.3,66.9,30.05,WSW,247,0.0,0.0,83,0.00,,,0.00,WUHU21623XXSP,2013-07-07 00:40:00,
2013-07-06 20:45:00,72.3,66.9,30.05,WSW,247,0.0,0.0,83,0.00,,,0.00,WUHU21623XXSP,2013-07-07 00:45:00,
2013-07-06 20:50:00,72.3,66.9,30.05,WSW,247,0.0,0.0,83,0.00,,,0.00,WUHU21623XXSP,2013-07-07 00:50:00,
2013-07-06 20:55:00,72.1,66.7,30.05,WSW,247,0.0,0.0,83,0.00,,,0.00,WUHU21623XXSP,2013-07-07 00:55:00,
2013-07-06 21:01:00,72.1,66.7,30.06,WSW,247,0.0,0.0,83,0.00,,,0.00,WUHU21623XXSP,2013-07-07 01:01:00,
2013-07-06 21:06:00,72.1,66.7,30.06,WSW,247,0.0,0.0,83,0.00,,,0.00,WUHU21623XXSP,2013-07-07 01:06:00,
2013-07-06 21:11:00,72.0,66.5,30.06,WSW,247,0.0,0.0,83,0.00,,,0.00,WUHU21623XXSP,2013-07-07 01:11:00,
2013-07-06 21:17:00,72.0,66.8,30.06,WSW,247,0.0,0.0,84,0.00,,,0.00,WUHU21623XXSP,2013-07-07 01:17:00,
2013-07-06 21:22:00,71.8,66.3,30.05,WSW,247,0.0,0.0,83,0.00,,,0.00,WUHU21623XXSP,2013-07-07 01:22:00,
2013-07-06 21:28:00,71.8,66.3,30.06,WSW,247,0.0,0.0,83,0.00,,,0.00,WUHU21623XXSP,2013-07-07 01:28:00,
2013-07-06 21:33:00,71.8,66.3,30.07,WSW,247,0.0,0.0,83,0.00,,,0.00,WUHU21623XXSP,2013-07-07 01:33:00,
2013-07-06 21:38:00,71.4,66.1,30.06,WSW,247,0.0,0.0,83,0.00,,,0.00,WUHU21623XXSP,2013-07-07 01:38:00,
2013-07-06 21:43:00,71.4,66.0,30.07,WSW,247,0.0,0.0,83,0.00,,,0.00,WUHU21623XXSP,2013-07-07 01:43:00,
2013-07-06 21:48:00,71.4,66.0,30.07,WSW,247,0.0,0.0,83,0.00,,,0.00,WUHU21623XXSP,2013-07-07 01:48:00,
2013-07-06 21:53:00,71.4,66.0,30.07,WSW,247,0.0,0.0,83,0.00,,,0.00,WUHU21623XXSP,2013-07-07 01:53:00,
2013-07-06 21:58:00,71.4,66.0,30.08,WSW,247,0.0,0.0,83,0.00,,,0.00,WUHU21623XXSP,2013-07-07 01:58:00,
2013-07-06 22:05:00,71.4,66.0,30.08,WSW,247,0.0,0.0,83,0.00,,,0.00,WUHU21623XXSP,2013-07-07 02:05:00,
2013-07-06 22:10:00,71.4,66.0,30.08,WSW,247,0.0,0.0,83,0.00,,,0.00,WUHU21623XXSP,2013-07-07 02:10:00,
2013-07-06 22:16:00,71.4,66.3,30.08,WSW,247,0.0,0.0,84,0.00,,,0.00,WUHU21623XXSP,2013-07-07 02:16:00,
2013-07-06 22:21:00,71.4,66.3,30.08,WSW,247,0.0,0.0,84,0.00,,,0.00,WUHU21623XXSP,2013-07-07 02:21:00,
2013-07-06 22:26:00,71.4,66.7,30.08,WSW,247,0.0,0.0,85,0.00,,,0.00,WUHU21623XXSP,2013-07-07 02:26:00,
2013-07-06 22:31:00,71.4,66.7,30.08,WSW,247,0.0,0.0,85,0.00,,,0.00,WUHU21623XXSP,2013-07-07 02:31:00,
2013-07-06 22:36:00,70.9,66.1,30.09,WSW,247,0.0,0.0,85,0.00,,,0.00,WUHU21623XXSP,2013-07-07 02:36:00,
2013-07-06 22:42:00,70.9,66.1,30.08,WSW,247,0.0,0.0,85,0.00,,,0.00,WUHU21623XXSP,2013-07-07 02:42:00,
2013-07-06 22:48:00,70.9,66.1,30.09,WSW,247,0.0,0.0,85,0.00,,,0.00,WUHU21623XXSP,2013-07-07 02:48:00,
2013-07-06 22:53:00,70.9,66.1,30.09,WSW,247,0.0,0.0,85,0.00,,,0.00,WUHU21623XXSP,2013-07-07 02:53:00,
2013-07-06 22:58:00,70.9,66.1,30.09,WSW,247,0.0,0.0,85,0.00,,,0.00,WUHU21623XXSP,2013-07-07 02:58:00,
2013-07-06 22:59:00,70.9,66.1,30.09,North,0,0.0,0.0,85,0.00,,,0.00,WUHU21623XXSP,2013-07-07 02:59:00,
2013-07-06 23:03:00,70.9,66.1,30.09,WSW,247,0.0,0.0,85,0.00,,,0.00,WUHU21623XXSP,2013-07-07 03:03:00,
2013-07-06 23:08:00,70.9,66.1,30.09,North,0,0.0,0.0,85,0.00,,,0.00,WUHU21623XXSP,2013-07-07 03:08:00,